Location: Dover
(39.1580°N, 75.5250°W)
Time: 18:36:03
(UTC-04:00)

Daily predictions for brighter satellites

Satellite Brightness Start Highest point End
(mag) Time Altitude Azimuth Time Altitude Azimuth Time Altitude Azimuth
BREEZE-M DEB (TANK) 4.4 20:01:01 10° WNW 20:04:53 47° NNE 20:17:56 10° E
USA 234 4.3 20:11:07 10° E 20:16:53 35° NNE 20:22:39 10° NW
Envisat 4.0 20:15:43 10° SE 20:20:02 29° ENE 20:24:21 10° N
CZ-2D R/B 3.4 20:16:52 10° SSE 20:20:40 56° ENE 20:24:29 10° N
Nadezhda 4 Rocket 4.4 20:15:16 10° NNW 20:21:31 71° W 20:27:47 10° S
Meteor 1-29 4.4 20:20:33 10° NE 20:23:07 19° E 20:25:40 10° SE
Cosmos 1733 Rocket 4.1 20:19:22 10° NNE 20:23:16 29° ENE 20:27:09 10° SE
Cosmos 1315 Rocket 3.0 20:19:33 10° N 20:23:37 81° W 20:27:37 10° S
SEDSat Delta rocket 4.3 20:26:39 10° WSW 20:31:10 35° S 20:36:08 11° ESE
Cosmos 1862 Rocket 4.3 20:27:22 10° SSE 20:31:23 34° E 20:35:26 10° NNE
Cosmos 1933 4.2 20:28:03 10° SSE 20:31:32 28° E 20:35:01 10° NNE
Cosmos 1634 Rocket 4.0 20:26:36 10° S 20:32:54 83° E 20:39:16 10° N
Helios 1A 3.5 20:30:05 10° SE 20:34:04 41° ENE 20:38:05 10° N
Cosmos 1092 Rocket 4.2 20:27:58 10° N 20:34:19 79° W 20:40:39 10° S
ERBS 3.7 20:39:44 10° WNW 20:42:54 34° SW 20:46:05 10° SSE
USA 186 1.3 20:40:44 10° SSE 20:43:29 82° ENE 20:46:26 10° N
ERS-1 Rocket 4.2 20:42:03 13° ESE 20:45:25 24° ENE 20:49:22 10° NNE
CZ-4B DEB 3.4 20:44:26 15° SE 20:46:33 34° ENE 20:49:21 10° N
Resurs 1-3 4.0 20:42:43 10° S 20:47:04 66° WSW 20:51:27 10° NNW
YAOGAN 6 4.1 20:47:03 15° ESE 20:48:45 20° ENE 20:51:29 10° NNE
Cosmos 1862 3.5 20:45:32 10° N 20:49:30 53° E 20:53:19 11° SSE
Cosmos 1655 Rocket 4.1 20:46:06 10° N 20:52:29 68° E 20:58:47 10° SSE
Meteor 2-10 Rocket 4.1 20:51:25 10° SSE 20:56:52 43° E 21:02:19 10° NNE
USA 229 DEB 4.0 20:52:27 10° S 20:58:48 43° ESE 21:05:15 10° NE
USA 229 4.0 20:52:35 10° S 20:58:54 43° ESE 21:05:21 10° NE
Cosmos 2242 Rocket 4.2 21:00:09 10° SSW 21:04:36 59° W 21:09:02 10° N
Cosmos 1939 Rocket 2.8 21:04:38 17° SSE 21:07:42 66° ENE 21:11:40 10° N
Cosmos 1992 Rocket 4.3 21:04:30 10° SSW 21:09:43 70° WNW 21:14:58 10° NNE
Cosmos 2279 Rocket 4.0 21:04:17 10° S 21:10:32 86° W 21:16:48 10° N
Intercosmos 25 Rocket 4.1 21:09:21 10° SSW 21:12:27 49° WNW 21:16:26 10° N
SPOT 5 4.2 21:11:25 19° E 21:12:52 22° ENE 21:16:23 10° NNE
Cosmos 2263 Rocket 2.2 21:11:04 10° NNW 21:16:40 84° WSW 21:20:54 18° SSE
Atlas Centaur 2 3.3 21:12:05 10° WSW 21:18:20 41° S 21:22:35 23° ESE
Helios 1B rocket 3.2 21:17:29 10° N 21:21:30 55° WNW 21:25:30 10° SSW
Lacrosse 4 Rocket 3.0 21:17:50 10° NW 21:21:45 33° WSW 21:25:39 10° S
Cosmos 2237 4.4 21:17:43 10° S 21:23:10 47° ESE 21:28:36 10° NE
Cosmos 2322 Rocket 3.8 21:20:30 10° SW 21:25:40 38° WNW 21:30:54 10° N
Resurs 01 Rocket 4.0 21:22:20 10° SW 21:25:44 21° W 21:29:09 10° NW
ORS 1 (USA 231) 4.5 21:24:28 10° W 21:27:31 63° SSW 21:27:47 59° SSE
COSMOS 2428 3.0 21:29:07 21° SSE 21:32:25 42° ESE 21:37:45 10° NE
Cosmos 2360 Rocket 2.2 21:28:10 10° SSW 21:33:49 83° WNW 21:39:32 10° NNE
CZ-4C R/B 4.4 21:29:26 10° N 21:34:40 22° NE 21:39:16 13° E
Cosmos 1825 4.4 21:31:40 10° NW 21:34:47 24° W 21:37:53 10° SW
H-2A R/B 4.3 21:37:08 12° ENE 21:37:08 12° ENE 21:38:35 10° NE
OAO 3 Rocket 3.8 21:34:49 10° W 21:39:25 42° SSW 21:40:29 36° SSE
MetOp-B 4.3 21:39:00 36° SE 21:40:57 54° ENE 21:46:10 10° N
Meteor 1-14 Rocket 4.2 21:36:11 10° N 21:41:52 69° E 21:44:26 34° SSE
Cosmos 1908 Rocket 3.5 21:39:03 10° N 21:43:24 83° W 21:45:05 37° S
Sich 1 Rocket 3.6 21:40:31 10° N 21:45:00 81° W 21:46:55 35° S
NOAA 11 4.2 21:43:49 37° SE 21:45:54 63° ENE 21:51:20 10° N
Cosmos 968 Rocket 3.5 21:41:00 10° NNW 21:46:14 84° WSW 21:48:27 36° SSE
Meteor 1-25 Rocket 4.3 21:41:09 10° N 21:46:37 54° ENE 21:48:11 41° SE
Cosmos 2322 3.9 21:43:24 10° SSW 21:49:06 73° WNW 21:54:49 10° NNE
ATLAS 5 CENTAUR R/B 2.5 21:44:30 10° NW 21:50:35 74° WSW 21:53:35 34° SSE
ARGOS 3.2 21:56:21 47° ESE 21:57:36 59° ENE 22:02:53 10° N
Cosmos 1782 Rocket 3.4 21:53:30 10° N 21:57:54 81° E 21:58:28 66° SSE
Meteor 1-20 Rocket 4.2 21:53:18 10° N 21:58:50 61° ENE 22:00:07 48° SE
USA 234 3.2 21:56:41 38° SE 21:59:28 80° SW 22:06:03 10° NW
Cosmos 1867 3.7 21:54:09 10° NW 21:59:34 69° WSW 22:01:17 43° S
H-2A R/B 2.6 21:59:46 36° ENE 22:00:00 36° ENE 22:04:31 10° N
USA 245 4.1 21:59:27 48° SE 22:00:50 65° ENE 22:05:45 10° N
Terra 3.4 22:01:51 21° ENE 22:01:51 21° ENE 22:05:00 10° NNE
Okean 1-7 3.1 22:08:39 59° SSW 22:09:25 77° W 22:13:50 10° N
Okean 2 Rocket 3.0 22:05:27 10° N 22:09:59 78° E 22:10:03 78° E
Cosmos 2333 4.1 22:08:24 32° SSW 22:11:12 80° ESE 22:16:59 10° NNE
Cosmos 2237 Rocket 3.7 22:14:04 21° ENE 22:14:04 21° ENE 22:16:28 10° NE
Meteor 2-6 Rocket 4.4 22:11:16 53° ESE 22:11:53 55° E 22:17:41 10° NNE
Cosmos 2333 Rocket 3.0 22:13:24 36° ENE 22:13:24 36° ENE 22:17:29 10° NE
Cosmos 1570 Rocket 4.4 22:17:37 46° ENE 22:17:37 46° ENE 22:21:49 10° NNE
Cosmos 2278 Rocket 3.3 22:12:25 10° N 22:17:16 28° ENE 22:17:43 28° ENE
Cosmos 1844 Rocket 2.6 22:13:08 10° NNW 22:18:42 68° ENE 22:19:16 63° ESE
ERS-1 Rocket 4.1 22:22:04 28° SW 22:23:57 38° W 22:28:38 10° NNW
Nimbus 7 Rocket 4.3 22:19:48 10° NNE 22:25:47 88° ESE 22:27:31 50° SSW
Cosmos 2208 Rocket 4.4 22:26:54 50° ENE 22:26:54 50° ENE 22:31:07 10° NNE
SeaSat 1 2.3 22:27:56 78° ENE 22:27:56 78° ENE 22:32:53 10° NNW
Milstar 3 4.2 22:27:11 10° WSW 22:31:42 20° SSW 22:31:42 20° SSW
Cosmos 1417 Rocket 4.4 22:33:33 68° SE 22:34:08 72° E 22:40:29 10° N
Cosmos 1782 3.8 22:36:14 46° NNW 22:36:14 46° NNW 22:39:18 10° N
Cosmos 1745 Rocket 4.4 22:31:18 10° N 22:37:19 47° ENE 22:37:19 47° ENE
Cosmos 2219 Rocket 2.0 22:37:35 86° ESE 22:37:35 86° ESE 22:43:12 10° NNE
NOSS 3-1 (C) 3.3 22:42:31 56° SW 22:43:51 85° NW 22:50:16 10° NNE
Cosmos 2151 Rocket 4.3 22:39:40 10° N 22:42:57 49° N 22:42:57 49° N
SPOT 1/Viking Rocket 3.7 22:47:41 64° W 22:47:41 64° W 22:52:51 10° NNW
SPOT 5 3.9 22:50:39 38° W 22:50:43 38° W 22:55:04 10° NNW
Meteor 1-27 Rocket 3.8 22:53:16 68° NNE 22:53:16 68° NNE 22:58:10 10° NNE
NOSS 3-1 (A) 3.4 23:00:30 76° NNE 23:00:30 76° NNE 23:06:23 10° NNE
NOSS 0 Rocket 3.9 23:01:38 79° NNE 23:01:38 79° NNE 23:07:23 10° NNE
ASTEX 1 4.0 23:02:21 55° NNW 23:02:21 55° NNW 23:06:15 10° N
Atlas Centaur 2 3.8 23:00:31 10° WSW 23:05:13 34° SW 23:05:13 34° SW
H-2A R/B 3.7 23:14:15 33° NNW 23:14:15 33° NNW 23:16:45 10° NNW
Cosmos 1553 Rocket 4.2 23:17:12 64° W 23:17:24 64° W 23:23:36 10° N
Meteor 1-11 Rocket 4.1 23:13:54 10° NNW 23:18:30 58° NW 23:18:30 58° NW
CZ-4C R/B 2.8 23:17:00 10° NNW 23:24:16 80° ENE 23:24:27 79° ENE
Cosmos 1980 4.3 23:28:49 53° NNW 23:28:49 53° NNW 23:33:35 10° NNE
ATLAS 3B R/B 4.2 23:26:53 10° NNW 23:32:17 24° NE 23:33:55 22° ENE
SL-16 R/B 3.7 23:36:36 28° NE 23:36:36 28° NE 23:39:13 10° NNE
Terra 3.5 23:40:44 29° NW 23:40:44 29° NW 23:43:27 10° NNW
H-2A R/B 3.9 23:40:23 22° WNW 23:40:23 22° WNW 23:43:26 10° NW
